Location: Agadir Mansour Mhndou
(31.2424°N, 8.7730°W)
Time: 18:33:37
(UTC+00:00)

Okean 1-7 Rocket - Pass Details

Date: 16 October 2021
Orbit: 617 x 648 km, 82.5° (Epoch: 07 December)

Event Time Altitude Azimuth Distance (km) Brightness Sun altitude
Rises 19:56:50 0° 352° (N) 2,896 7.2 -25.3°
Reaches altitude 10° 19:59:04 10° 351° (N) 1,989 6.3 -25.8°
Enters shadow 20:02:07 44° 342° (NNW) 862 4.3 -26.4°
